Probability
0 0 0 0 0 0 0 0 0 3 0 0 10 3 0 6 16 13 16 16 16 23 23 19 19 23 16 13 16 10 3 6 10 13 19 26 23 16 16 16 3 10 10 10
0 0 0 0 0 0 0 0 0 0 0 0 6 0 0 0 13 13 13 13 16 23 29 26 19 19 16 23 19 16 10 10 13 13 16 19 26 19 16 16 19 16 13 13
3 0 0 0 0 0 0 0 0 0 0 3 3 0 3 3 10 13 16 13 19 23 23 29 26 23 19 23 23 16 13 13 13 13 13 16 13 16 16 19 32 19 10 10
3 0 0 0 0 0 0 0 0 3 0 0 6 10 6 10 10 16 16 23 26 26 29 29 26 26 23 19 23 13 16 19 13 16 13 19 16 19 19 23 23 19 13 10
0 0 0 0 0 0 0 0 0 0 0 0 0 3 0 10 19 19 16 23 26 26 29 26 26 23 23 19 16 10 10 13 10 10 16 13 16 26 29 29 29 26 23 13
0 0 0 0 0 0 0 0 0 0 0 0 0 0 10 13 16 16 23 26 26 23 23 29 26 19 23 19 13 10 6 13 13 16 19 19 26 29 32 29 29 29 6 16
3 6 0 0 0 0 0 3 6 0 0 0 3 13 23 16 16 23 23 23 26 19 23 26 19 19 19 19 19 19 10 10 13 19 23 19 26 35 23 29 26 26 23 13
6 0 0 0 0 3 6 13 10 3 6 6 13 23 23 19 16 19 23 23 19 26 26 26 16 16 23 26 26 23 19 16 13 23 10 6 29 23 29 29 19 23 23 19
13 3 6 3 6 6 6 6 0 3 3 6 6 6 6 10 16 19 23 26 19 19 26 26 19 23 23 26 23 23 23 19 16 23 23 13 16 16 23 29 10 3 10 13
6 3 0 0 0 0 3 3 0 0 3 3 6 6 10 6 16 26 23 23 16 19 16 23 26 16 26 23 19 19 19 19 23 19 19 19 19 10 10 6 3 3 3 10
0 0 3 3 0 0 0 0 3 3 3 3 10 6 10 10 6 16 16 23 19 23 19 23 23 23 19 19 23 26 26 23 29 16 13 23 13 10 6 10 6 3 6 3
0 0 0 0 0 0 0 0 0 0 0 3 3 3 6 6 13 13 16 19 19 16 13 19 23 16 16 19 16 19 19 23 19 13 16 16 13 6 0 0 0 0 0 0
3 0 0 0 0 0 0 0 0 0 0 0 3 3 3 10 10 13 13 13 13 10 6 13 10 10 10 10 19 19 19 19 19 10 13 10 13 10 6 0 0 0 0 0
0 0 0 0 0 0 0 0 0 0 0 3 3 0 0 3 13 13 13 13 6 10 6 6 6 10 10 10 16 19 13 10 10 13 13 13 10 6 3 3 3 0 0 0
0 0 0 0 0 0 0 0 0 0 3 3 3 0 0 0 6 13 10 10 10 6 6 6 6 6 10 6 6 13 10 6 6 6 6 6 6 3 0 3 3 3 0 0
0 0 0 0 0 0 0 0 0 0 0 0 3 3 0 3 6 6 6 10 10 10 10 10 6 10 6 6 13 13 10 3 3 6 6 6 3 0 0 0 0 3 0 0
0 0 0 0 0 0 0 0 0 0 0 3 3 3 0 0 3 10 6 6 13 6 6 10 13 3 3 3 3 3 3 3 0 3 3 3 0 0 0 0 0 3 0 0
0 0 0 0 0 0 0 0 0 0 0 3 3 3 0 3 3 10 6 6 10 3 3 3 3 6 3 3 3 3 3 3 3 3 3 3 0 0 0 0 0 0 0 0
0 0 0 0 0 0 0 0 0 0 0 0 3 3 3 3 3 6 6 6 3 3 3 3 0 3 10 3 3 3 3 0 0 0 0 0 0 0 0 0 0 0 0 0
0 0 0 0 0 0 0 0 0 0 0 3 3 3 3 3 3 3 3 3 6 6 3 3 0 3 3 3 3 3 3 0 0 0 0 0 0 0 0 0 0 0 0 0
0 0 0 0 0 0 0 0 0 0 0 0 0 3 3 6 3 3 6 3 13 3 3 0 3 3 3 0 0 3 3 3 0 0 0 0 0 0 0 0 0 0 0 0
0 0 0 0 0 0 0 0 0 0 0 0 0 0 3 6 6 6 6 3 0 0 0 0 3 0 0 0 0 0 0 3 0 0 0 0 0 0 0 0 0 0 0 0
0 0 0 0 0 0 0 0 0 0 0 0 0 3 6 6 6 3 0 3 0 0 0 0 0 0 0 0 0 0 0 0 0 0 0 0 0 0 0 0 0 0 0 0
0 0 0 0 0 0 0 0 0 0 0 3 3 3 6 6 3 3 3 0 0 0 0 0 0 0 0 3 3 0 0 0 0 0 0 0 0 0 0 0 0 0 0 0
0 0 0 0 0 0 0 0 0 0 0 3 3 3 3 3 3 3 3 0 0 0 0 0 0 0 0 3 3 3 3 0 0 0 0 0 0 0 0 0 0 0 0 0
0 0 0 0 0 0 0 0 0 0 0 0 0 0 3 3 3 3 3 0 0 0 0 0 0 0 0 0 3 3 3 3 3 0 0 0 0 0 0 0 0 0 0 0
0 0 0 0 0 0 0 0 0 0 0 0 0 0 0 0 0 0 0 0 0 0 0 0 0 0 0 0 0 0 3 3 0 3 0 0 0 0 0 0 0 0 0 0
Height
5815 5815 5814 5814 5814 5813 5812 5811 5810 5809 5807 5805 5802 5800 5797 5795 5794 5791 5789 5786 5783 5781 5778 5776 5773 5771 5769 5767 5765 5763 5762 5760 5759 5757 5756 5754 5753 5752 5751 5750 5749 5747 5746 5744
5811 5811 5810 5810 5809 5809 5808 5806 5806 5805 5803 5800 5797 5796 5794 5792 5790 5787 5785 5782 5780 5777 5775 5773 5770 5768 5766 5764 5762 5760 5758 5757 5755 5753 5752 5751 5750 5749 5748 5746 5745 5743 5742 5740
5806 5805 5805 5805 5805 5804 5803 5802 5802 5800 5799 5796 5794 5792 5791 5788 5786 5783 5781 5779 5776 5774 5772 5770 5767 5765 5763 5761 5759 5757 5755 5753 5752 5750 5749 5747 5746 5745 5744 5742 5741 5739 5738 5736
5801 5801 5800 5802 5800 5799 5798 5797 5796 5795 5793 5791 5790 5788 5786 5784 5782 5779 5777 5775 5772 5770 5768 5766 5764 5762 5760 5758 5756 5754 5752 5750 5748 5747 5745 5744 5742 5741 5740 5739 5737 5735 5734 5732
5796 5795 5795 5796 5794 5793 5792 5791 5791 5790 5788 5786 5784 5783 5781 5779 5777 5775 5773 5771 5768 5766 5764 5762 5760 5758 5756 5754 5752 5751 5749 5747 5745 5743 5742 5740 5739 5737 5736 5735 5733 5732 5730 5728
5790 5790 5790 5791 5789 5787 5788 5786 5786 5784 5783 5782 5780 5779 5777 5775 5773 5771 5769 5767 5764 5762 5760 5759 5757 5755 5753 5751 5749 5747 5745 5743 5741 5739 5738 5737 5735 5734 5732 5730 5729 5727 5725 5723
5783 5784 5783 5783 5783 5783 5783 5782 5780 5779 5778 5776 5775 5774 5772 5770 5768 5766 5765 5763 5761 5758 5756 5755 5753 5751 5749 5747 5745 5743 5741 5739 5737 5736 5734 5733 5731 5730 5728 5726 5724 5723 5721 5719
5777 5778 5779 5777 5777 5777 5776 5774 5774 5773 5772 5771 5770 5769 5767 5766 5764 5762 5760 5758 5756 5754 5752 5750 5748 5747 5745 5742 5741 5739 5737 5735 5733 5732 5730 5728 5727 5725 5723 5722 5720 5718 5717 5715
5772 5773 5772 5771 5770 5770 5769 5769 5768 5767 5767 5766 5765 5764 5762 5760 5758 5756 5755 5753 5751 5749 5748 5745 5743 5742 5740 5738 5736 5734 5732 5730 5728 5727 5726 5724 5722 5720 5719 5717 5715 5714 5712 5710
5764 5763 5763 5763 5764 5764 5763 5762 5762 5760 5760 5759 5758 5757 5756 5755 5753 5750 5749 5748 5746 5744 5742 5740 5738 5737 5735 5733 5731 5729 5727 5726 5724 5722 5720 5719 5717 5716 5714 5712 5711 5709 5707 5705
5756 5756 5756 5756 5756 5756 5756 5755 5755 5754 5753 5752 5752 5751 5749 5748 5746 5745 5743 5741 5740 5738 5736 5734 5733 5731 5730 5728 5726 5724 5722 5720 5719 5717 5715 5714 5712 5711 5709 5707 5706 5704 5702 5700
5748 5748 5749 5749 5749 5748 5748 5748 5747 5747 5746 5745 5744 5743 5742 5741 5739 5738 5736 5734 5733 5732 5730 5728 5727 5726 5724 5722 5721 5719 5718 5716 5714 5712 5710 5709 5707 5706 5704 5702 5701 5699 5698 5696
5740 5740 5740 5740 5740 5740 5739 5739 5739 5739 5738 5737 5737 5736 5734 5733 5732 5730 5729 5727 5726 5725 5723 5722 5721 5719 5718 5717 5715 5714 5712 5711 5709 5707 5705 5704 5702 5701 5699 5698 5696 5695 5693 5692
5731 5731 5731 5732 5732 5731 5731 5731 5730 5730 5730 5729 5729 5728 5727 5725 5724 5723 5722 5720 5719 5717 5716 5715 5714 5713 5712 5711 5710 5708 5707 5705 5704 5702 5700 5699 5697 5696 5695 5693 5692 5690 5689 5688
5722 5722 5723 5723 5723 5723 5723 5723 5722 5722 5722 5721 5721 5720 5718 5717 5716 5715 5714 5713 5711 5710 5709 5708 5708 5707 5706 5705 5704 5703 5701 5700 5698 5697 5695 5694 5692 5691 5690 5689 5688 5686 5685 5684
5712 5713 5713 5714 5714 5714 5714 5714 5714 5714 5714 5713 5712 5711 5710 5709 5708 5707 5706 5705 5704 5702 5702 5701 5701 5700 5699 5698 5698 5697 5695 5694 5693 5692 5690 5689 5688 5687 5685 5684 5683 5683 5681 5680
5703 5704 5704 5705 5705 5705 5705 5705 5705 5705 5705 5705 5704 5703 5702 5701 5700 5699 5698 5697 5697 5695 5695 5694 5693 5693 5692 5692 5691 5690 5689 5688 5687 5686 5685 5684 5683 5682 5681 5680 5679 5678 5677 5676
5693 5694 5695 5696 5696 5697 5697 5696 5696 5696 5696 5696 5695 5694 5693 5692 5692 5691 5690 5690 5689 5689 5688 5687 5686 5686 5685 5685 5685 5684 5683 5682 5681 5680 5679 5678 5678 5677 5676 5675 5674 5674 5672 5671
5684 5685 5686 5687 5687 5688 5688 5687 5688 5688 5688 5687 5686 5686 5685 5684 5684 5683 5682 5682 5681 5681 5680 5679 5678 5678 5678 5678 5678 5677 5677 5676 5675 5674 5673 5673 5672 5672 5671 5670 5670 5669 5668 5666
5676 5677 5678 5678 5679 5679 5679 5679 5679 5679 5679 5679 5678 5678 5677 5677 5676 5675 5674 5673 5673 5672 5671 5671 5670 5671 5671 5671 5671 5670 5670 5669 5669 5668 5667 5667 5666 5666 5665 5665 5664 5663 5662 5661
5667 5668 5669 5670 5670 5671 5671 5671 5671 5671 5671 5670 5670 5670 5669 5669 5668 5667 5666 5665 5665 5664 5664 5663 5663 5663 5664 5664 5664 5663 5663 5662 5662 5661 5661 5661 5660 5660 5660 5659 5658 5658 5657 5656
5659 5659 5660 5661 5661 5662 5662 5663 5663 5663 5662 5662 5662 5661 5661 5661 5660 5659 5659 5658 5658 5657 5657 5657 5657 5657 5657 5657 5657 5656 5656 5655 5655 5655 5654 5654 5654 5654 5653 5653 5652 5651 5650 5649
5650 5651 5651 5652 5653 5653 5654 5654 5654 5654 5654 5654 5654 5654 5653 5653 5653 5653 5652 5652 5651 5651 5651 5651 5651 5651 5651 5650 5650 5650 5649 5649 5648 5648 5648 5648 5648 5647 5647 5646 5646 5645 5644 5643
5642 5642 5643 5643 5644 5645 5645 5646 5646 5646 5646 5646 5646 5646 5645 5645 5645 5645 5646 5645 5645 5645 5645 5645 5645 5645 5644 5644 5644 5643 5642 5642 5642 5642 5642 5641 5641 5641 5640 5640 5639 5638 5637 5636
5633 5634 5634 5635 5635 5636 5637 5637 5637 5637 5638 5638 5638 5638 5638 5638 5638 5639 5639 5639 5638 5638 5638 5638 5638 5638 5638 5637 5637 5636 5636 5635 5635 5635 5635 5635 5634 5634 5633 5633 5632 5631 5630 5629
5625 5625 5626 5627 5627 5628 5628 5628 5629 5629 5629 5630 5630 5630 5630 5631 5631 5631 5632 5631 5631 5631 5631 5631 5631 5631 5631 5630 5630 5629 5629 5628 5628 5628 5627 5627 5627 5626 5626 5625 5624 5624 5623 5622
5617 5617 5618 5619 5619 5620 5620 5620 5620 5621 5621 5622 5622 5623 5623 5623 5623 5624 5624 5624 5624 5624 5624 5623 5623 5623 5623 5623 5622 5622 5621 5620 5620 5620 5620 5619 5619 5619 5618 5618 5617 5616 5615 5614
Wind_Speed
15 15 15 16 16 15 15 16 15 16 17 19 20 20 20 20 21 21 21 21 21 20 19 18 17 17 16 16 16 16 16 15 15 15 16 15 16 16 15 16 16 16 16 17
18 16 17 17 17 16 16 16 16 17 18 20 20 20 19 20 21 21 20 20 20 19 18 18 17 17 16 16 16 16 16 15 15 15 15 14 15 15 16 16 17 17 18 18
18 17 17 17 16 16 17 17 17 18 18 19 20 20 20 20 20 20 20 19 19 19 18 18 17 17 16 16 16 16 15 15 14 14 14 14 15 16 16 16 17 17 17 17
18 18 20 18 17 17 19 19 19 19 18 19 20 20 20 21 20 20 19 19 19 18 18 17 17 16 16 16 16 15 15 15 15 15 15 15 16 16 15 16 16 17 17 17
19 19 19 18 18 18 19 20 19 19 19 19 19 20 21 20 20 20 20 19 18 18 18 17 17 16 17 17 16 16 15 15 16 16 16 16 16 16 16 17 17 17 17 17
21 20 19 20 19 18 19 20 19 18 18 18 20 18 20 20 20 20 19 18 17 17 18 18 17 17 17 17 17 17 17 17 16 16 16 16 17 17 17 18 18 18 18 18
22 21 21 22 21 20 20 21 20 19 19 20 19 19 19 20 20 19 19 18 18 18 18 18 18 17 17 17 17 18 18 17 16 17 17 17 17 17 17 17 17 17 18 18
23 23 22 22 22 22 21 21 21 20 20 20 19 20 20 21 21 20 20 19 19 19 19 19 19 18 18 18 18 18 18 18 17 17 18 18 18 18 17 17 17 17 18 18
25 25 25 25 24 24 23 23 22 21 21 21 22 22 22 22 22 23 22 21 21 20 20 20 20 20 19 19 19 19 19 18 18 18 18 19 19 18 18 18 18 18 18 18
27 27 26 26 25 25 25 24 24 22 21 22 23 23 23 24 24 23 23 23 23 22 21 21 20 20 20 20 19 19 19 19 19 19 19 18 18 19 19 18 18 18 18 18
29 29 28 28 27 26 26 26 26 25 24 25 25 25 25 25 25 25 25 24 23 22 22 21 21 20 20 20 20 20 20 20 20 19 19 19 19 20 19 18 18 18 18 18
31 31 30 29 28 27 27 27 27 27 26 26 26 26 26 26 26 26 26 25 23 23 23 22 21 21 20 21 20 20 19 19 19 18 19 19 19 19 18 18 18 17 17 16
32 32 30 30 29 28 28 28 28 27 26 26 26 26 27 27 27 27 26 25 24 24 23 23 23 22 21 21 21 20 19 19 19 19 19 19 19 18 18 18 18 17 16 15
31 31 30 29 29 28 28 27 27 27 27 27 27 27 27 27 27 26 26 26 25 24 24 24 23 22 22 21 21 20 19 19 19 19 18 18 18 17 17 17 17 15 15 15
32 31 30 30 29 28 28 28 28 28 28 28 27 27 27 27 26 26 26 26 26 25 24 23 23 22 22 22 21 20 20 19 19 19 18 18 17 17 16 16 15 14 14 14
31 30 30 29 29 29 29 29 28 28 28 28 28 27 27 26 26 26 25 25 25 23 23 23 23 23 22 21 21 20 20 19 19 19 19 18 18 17 17 16 15 14 15 15
30 30 30 30 29 29 28 29 29 28 28 28 28 28 27 27 26 25 25 25 25 24 23 24 24 24 23 22 22 21 21 20 20 19 19 18 18 18 17 16 15 15 15 15
29 29 29 30 29 29 29 29 28 28 28 28 28 28 27 27 26 25 24 24 25 25 25 25 24 24 23 22 22 21 21 21 20 20 20 19 19 18 17 17 16 16 16 16
30 29 29 28 28 28 27 27 27 27 27 26 26 26 26 26 26 25 26 25 25 25 25 25 24 23 23 23 22 22 22 21 21 21 20 20 19 19 19 18 17 17 17 17
29 29 29 29 29 28 27 27 27 27 26 26 26 26 26 26 25 25 25 25 25 24 24 23 23 23 23 23 23 23 22 22 22 21 20 20 19 19 19 18 18 18 18 19
28 28 29 29 29 28 28 27 27 26 26 26 26 25 25 25 25 25 24 23 23 23 23 23 22 22 23 23 23 23 23 22 21 21 20 20 20 20 20 20 20 20 20 20
27 28 28 29 29 28 28 28 27 26 26 25 25 25 25 25 25 24 23 22 22 22 22 22 21 21 21 22 22 22 22 21 21 21 21 21 21 21 21 21 21 21 21 22
28 28 28 28 28 28 28 28 27 26 26 25 25 25 24 24 23 22 22 22 22 22 21 21 21 21 21 21 21 21 22 22 21 21 21 21 21 21 21 21 21 22 21 21
27 27 28 28 28 28 28 27 27 27 26 25 25 24 23 23 23 22 21 21 21 22 21 21 21 22 22 22 22 22 21 21 21 21 21 22 22 22 22 22 22 21 21 21
27 27 28 27 27 27 27 27 27 27 26 25 25 24 24 23 23 23 23 23 23 23 23 23 22 22 22 22 22 22 22 22 22 22 22 22 23 23 23 23 23 22 22 22
26 26 26 26 26 26 25 26 26 26 26 25 25 24 24 24 24 23 24 24 25 24 24 24 24 24 23 23 23 23 23 23 23 23 22 23 23 23 23 23 24 23 22 22
26 26 26 25 25 25 25 25 25 25 25 25 25 25 25 24 25 25 25 25 26 25 25 25 24 24 24 24 24 24 24 24 23 23 22 22 23 23 23 22 22 23 22 22
Wind_Direction
272 270 271 275 275 278 280 278 278 280 283 287 292 296 298 303 304 305 308 309 311 314 316 316 314 311 308 308 309 309 307 305 305 302 297 293 293 293 296 300 302 303 302 303
272 273 271 271 273 276 278 278 278 279 282 287 289 293 297 301 302 305 308 309 310 312 313 314 314 313 310 308 309 309 309 308 305 303 300 296 295 296 298 301 302 301 302 302
274 277 270 272 273 274 277 276 277 278 280 284 288 292 295 297 299 303 307 307 310 311 312 313 313 313 313 312 309 309 308 308 308 307 303 300 299 298 299 301 303 303 303 301
271 273 272 276 273 274 275 274 275 276 280 285 286 290 293 295 298 302 303 304 306 306 307 310 310 310 310 312 312 310 308 306 305 305 302 300 299 300 299 302 303 304 304 302
269 272 273 276 273 273 273 276 275 276 282 285 287 291 292 295 298 301 302 304 305 304 306 307 306 305 306 307 308 308 307 306 303 302 299 299 301 300 298 299 302 304 304 302
267 268 267 269 270 271 273 275 277 278 279 281 286 289 293 297 300 302 303 303 302 303 303 304 304 303 304 304 304 303 303 305 303 300 298 299 301 300 299 298 298 302 303 303
267 267 269 269 268 270 271 274 276 277 278 282 284 289 293 297 299 300 301 302 302 302 301 302 304 303 302 301 301 302 302 301 298 296 297 298 300 300 299 298 298 300 302 302
266 265 267 267 268 268 269 270 273 275 279 282 285 289 291 293 296 297 298 299 299 299 299 299 301 301 300 299 300 301 300 299 294 293 295 297 297 297 297 297 297 298 302 303
261 264 268 268 267 269 270 271 272 274 279 282 286 288 290 291 293 294 295 296 297 297 298 298 298 297 298 300 301 300 300 299 295 292 295 298 298 296 296 296 297 299 301 302
263 262 263 266 269 271 272 272 272 274 278 280 284 286 287 289 289 290 292 293 294 294 296 297 296 295 295 297 299 299 297 297 296 294 296 296 296 297 297 296 297 300 300 300
260 264 266 267 269 270 270 270 272 275 276 280 283 285 287 287 288 289 291 290 293 292 293 295 293 292 292 293 295 297 298 297 296 295 294 293 294 296 295 295 297 298 300 300
261 265 269 270 271 271 270 270 271 273 276 278 280 283 285 285 286 287 287 287 290 292 291 291 291 291 291 290 291 294 296 297 296 295 294 293 293 293 294 295 295 296 296 298
262 264 267 268 269 272 273 272 270 272 276 279 280 281 283 284 286 285 285 285 287 290 287 287 288 288 289 288 287 289 292 294 294 294 294 293 294 295 296 296 296 297 295 293
263 263 266 267 268 271 274 274 274 276 277 277 279 281 283 284 286 285 284 285 285 287 286 285 285 285 285 285 285 286 289 293 292 292 294 294 295 296 295 294 294 293 295 296
262 263 265 266 268 269 272 273 274 276 278 278 279 281 283 284 285 285 285 284 283 284 284 283 282 283 282 282 284 285 287 292 293 292 294 296 296 295 294 293 293 293 296 299
261 261 262 264 267 269 271 272 273 275 276 277 278 280 283 284 285 284 285 285 282 280 282 283 281 280 279 280 282 284 285 288 290 289 289 291 292 292 293 292 292 293 296 298
261 261 261 263 265 267 269 271 273 274 275 276 278 281 283 283 282 282 281 280 281 279 279 281 281 280 279 278 280 282 283 286 287 286 286 287 288 287 289 291 292 292 295 297
260 261 263 264 265 267 269 270 271 272 274 276 277 280 281 282 282 280 278 279 278 279 278 279 281 279 277 278 279 280 283 284 285 285 283 283 283 283 284 287 287 290 294 296
261 263 264 266 267 269 271 272 272 272 274 276 277 278 279 281 283 281 280 279 279 278 278 277 277 275 275 276 277 279 282 283 283 282 281 280 280 279 280 281 284 288 291 293
261 262 264 266 267 268 270 271 272 273 274 275 277 277 277 278 280 280 281 280 279 280 278 276 273 272 273 275 276 279 282 282 282 280 278 279 280 280 280 282 284 287 290 291
261 262 263 265 267 268 269 270 272 273 274 274 274 275 276 277 279 281 282 281 279 280 279 275 273 273 274 275 277 279 280 280 279 278 278 278 278 278 279 281 282 284 286 288
263 264 265 266 267 267 268 269 270 272 274 274 274 274 274 275 277 279 279 279 279 279 278 276 275 276 276 277 278 277 278 278 277 276 276 276 276 276 278 279 281 283 285 286
262 264 264 265 265 265 266 267 268 270 271 271 272 273 274 274 275 276 277 278 277 278 277 276 274 273 275 278 278 278 279 278 276 274 274 275 275 275 277 278 278 282 285 286
265 266 266 266 265 264 265 266 266 267 268 269 271 272 271 272 274 275 275 276 277 277 277 276 275 273 274 276 278 279 277 274 272 272 273 274 274 275 276 278 280 281 284 286
266 267 268 268 266 264 264 264 266 267 267 268 269 270 271 272 273 273 272 272 274 275 276 277 276 276 275 276 277 277 277 275 272 271 272 272 274 275 276 278 280 281 283 287
267 268 268 267 266 264 264 266 267 267 266 266 267 269 269 269 270 272 272 273 275 274 274 275 275 275 278 279 277 275 274 273 272 272 272 274 275 275 277 279 280 280 282 285
265 267 267 266 265 266 265 265 265 266 265 264 266 268 269 269 271 273 274 274 274 274 274 275 275 275 277 279 276 274 273 272 272 273 273 273 273 273 274 275 276 278 280 281